Freddy Ramirez

Olheiro-Chefe - Leones
13 Fev 2028
Domingo
Processo

Personalidade

Adaptabilidade (1) Ambição (7) Controvérsia (13) Lealdade (12) Pressão (15) Profissionalismo (8) Espírito Esportivo (11) Temperamento (3)

Perfil

Estilo de Treinamento Democrático
Licença Continental C
Determinação 3
Gestão de Pessoas 5
Motivação 3
Disciplina 6
Satisfação no Trabalho
100%
Fadiga
0%
Função Olheiro-Chefe
Salário 51.6K p/s
Contrato 14.03.2029

Desempenho

Comportamento Bom
Eficácia do Treinamento
38%
Desenvolvimento do Jogador
15%
Prevenção de Lesões
50%
Implementação Tática
25%

Eventos Recentes

Participou de uma reunião de recrutamento 14d atrás
Participando de desenvolvimento profissional 21d atrás
Participou de uma reunião de recrutamento 21d atrás
Participando de desenvolvimento profissional 21d atrás
Participando de desenvolvimento profissional 21d atrás
Participando de desenvolvimento profissional 21d atrás
Participando de desenvolvimento profissional 28d atrás
Participando de desenvolvimento profissional 28d atrás

Monitorando agora

121
Jogador Clube Status Habilidade Confiança Observado Última observação Último voto
Cristian Barros Cerro Ativo 120 / 101 40% 2 27.12.2027 -
Lautaro Gordillo Colegiales Ativo 103 / 104 40% 1 27.12.2027 -
Juan Diego Verdeza Barranquilla Ativo 87 / 82 51% 1 07.12.2027 -
Brayan Nazarith Bogota Ativo 94 / 78 44% 1 28.12.2026 -
Alex Vigo Independiente Rivadavia Ativo 122 / 109 40% 4 29.11.2026 -
Alonso Aceves Monterrey Ativo 119 / 105 40% 1 29.11.2026 -
Dylan Guajardo Dorados Ativo 105 / 106 40% 3 28.11.2026 -
Ángel Zapata Tijuana Ativo 97 / 106 40% 1 28.11.2026 -
Agustín Benítez Defensores Ativo 109 / 110 40% 1 28.11.2026 -
Juan Ignacio Méndez Instituto Ativo 127 / 127 40% 3 26.11.2026 -
Pedro Pedraza Pachuca Ativo 126 / 110 40% 2 26.11.2026 -
Eneko Astigarraga Real Sociedad Ativo 107 / 95 40% 1 25.11.2026 -
Rômulo Tigres Ativo 119 / 114 40% 7 24.11.2026 -
Aldo López Santos Laguna Ativo 123 / 124 40% 1 24.11.2026 -
Brian Farioli Estudiantes Ativo 105 / 119 40% 1 23.11.2026 -
Sandi Zajc NK Domzale Ativo 128 / 121 40% 1 22.11.2026 -
Alan Barrionuevo Tigre Ativo 117 / 118 40% 2 20.11.2026 -
Santiago García Imotski Ativo 93 / 81 40% 1 20.11.2026 -
Mauricio Guzmán Tristán Suárez Ativo 120 / 123 40% 1 18.11.2026 -
Juan Sierra La Equidad Ativo 114 / 135 40% 3 16.11.2026 -
Emiliano Álvarez Progreso Ativo 115 / 118 40% 2 16.11.2026 -
Paolo Yrizar Chernomorets Ativo 109 / 95 40% 1 16.11.2026 -
Ian Pérez Defensores Ativo 110 / 105 40% 1 14.11.2026 -
Camilo Martinez Cortulua Ativo 113 / 130 40% 2 13.11.2026 -
Gonzalo Pérez Lanús Ativo 114 / 109 40% 3 10.11.2026 -
Joel Orlando Almagro Ativo 98 / 117 40% 1 10.11.2026 -
Nicolás Retamar Ferro Carril Oeste Ativo 124 / 124 40% 1 10.11.2026 -
Damián Adín San Miguel Ativo 109 / 116 40% 1 07.11.2026 -
Martín Garay Tigre Ativo 124 / 107 40% 1 06.11.2026 -
Brian Orosco Godoy Cruz Ativo 120 / 118 40% 2 05.11.2026 -
Renzo Reynaga Patronato Ativo 123 / 117 40% 1 05.11.2026 -
Vicente Poggi Godoy Cruz Ativo 122 / 116 40% 4 03.11.2026 -
Bruno Palazzo Nueva Chicago Ativo 125 / 115 40% 1 02.11.2026 -
Facundo Melillán Güemes Ativo 106 / 110 40% 1 01.11.2026 -
Matías Rapetti Defensores Unidos Ativo 99 / 104 40% 1 01.11.2026 -
Brian Calderara Chacarita Juniors Ativo 122 / 115 40% 3 31.10.2026 -
Matías Machado Racing Ativo 124 / 101 40% 1 31.10.2026 -
Pedro Ramírez Deportivo Riestra Ativo 125 / 120 40% 2 30.10.2026 -
Alejo Tabares All Boys Ativo 128 / 120 40% 2 29.10.2026 -
Elías Pereyra Barracas Central Ativo 128 / 126 40% 1 29.10.2026 -
Ismael Cortez Gimnasia y Esgrima Ativo 127 / 109 40% 1 28.10.2026 -
Gonzalo Mottes Chacarita Juniors Ativo 113 / 105 40% 1 26.10.2026 -
Facundo Waller Huracán Ativo 115 / 131 40% 1 26.10.2026 -
Daniel Amador Chiapas Ativo 91 / 110 40% 1 26.10.2026 -
José Barreto Quilmes Ativo 104 / 100 40% 1 25.10.2026 -
Blas Armoa Gimnasia y Esgrima Ativo 108 / 121 40% 1 25.10.2026 -
Rodrigo López Pumas UNAM Ativo 120 / 115 40% 1 23.10.2026 -
Nicolás Mosca Atlanta Ativo 98 / 105 40% 1 23.10.2026 -
Facundo Miño Deportivo Riestra Ativo 115 / 118 40% 2 22.10.2026 -
Luciano Cosentino Wanderers Ativo 118 / 129 40% 1 20.10.2026 -
Santiago Apa All Boys Ativo 115 / 107 40% 1 20.10.2026 -
Milton Valenzuela Atlas Ativo 117 / 106 40% 2 17.10.2026 -
Thomas Ortega Quilmes Ativo 102 / 120 40% 1 17.10.2026 -
Franco Malagueño Colegiales Ativo 113 / 102 40% 1 17.10.2026 -
Facundo Ardiles Estudiantes Ativo 110 / 120 40% 2 14.10.2026 -
Ricardo Echeverría Santos Laguna Ativo 121 / 116 40% 1 13.10.2026 -
Agustín Gallo Tristán Suárez Ativo 123 / 115 40% 1 13.10.2026 -
Ulises Sánchez Gimnasia y Esgrima Ativo 122 / 135 40% 1 11.10.2026 -
Juan Velázquez Belgrano Ativo 108 / 121 40% 1 11.10.2026 -
Alejandro Molina Tristán Suárez Ativo 109 / 110 40% 1 08.10.2026 -
Santiago Martínez Godoy Cruz Ativo 117 / 121 40% 1 07.10.2026 -
Esteban Obregón Montevideo City Torque Ativo 116 / 128 40% 1 07.10.2026 -
Fernando Bersano Madryn Ativo 122 / 112 40% 1 07.10.2026 -
Matías Contrera Hrvatski Dragovoljac Ativo 103 / 109 40% 1 06.10.2026 -
Mauro Osores San Martín SJ Ativo 108 / 119 40% 1 06.10.2026 -
Fernando Miranda Colegiales Ativo 101 / 96 40% 1 04.10.2026 -
Agustín Dattola Almirante Brown Ativo 123 / 117 40% 1 01.10.2026 -
Facundo Di Biasi Gimnasia La Plata Ativo 129 / 123 40% 1 30.09.2026 -
Gonzalo Flores Almirante Brown Ativo 122 / 110 40% 1 30.09.2026 -
Tomás Castro Ponce Atlanta Ativo 109 / 120 40% 1 28.09.2026 -
Fernando Rodríguez Almirante Brown Ativo 103 / 97 40% 1 27.09.2026 -
Elias Manoel Tijuana Ativo 101 / 117 40% 1 22.09.2026 -
Cristopher Rodríguez Estudiantes de Merida Ativo 113 / 96 40% 2 20.09.2026 -
Lautaro Pertusatti River Plate Ativo 92 / 96 40% 2 20.09.2026 -
Mauricio Isais Pachuca Ativo 111 / 118 40% 2 19.09.2026 -
Julián Brea Cobresal Ativo 108 / 90 40% 1 18.09.2026 -
Pablo Monroy Pumas UNAM Ativo 127 / 129 40% 4 16.09.2026 -
Sebastián Pereira Union Espanola Ativo 108 / 102 40% 1 16.09.2026 -
Diego Hernández Aguilas Doradas Ativo 127 / 115 40% 1 15.09.2026 -
Alejo Cruz Juventud Ativo 112 / 119 40% 1 15.09.2026 -
Franco González Penarol Ativo 103 / 124 40% 1 15.09.2026 -
David Morosini Juventud Ativo 95 / 113 40% 1 13.09.2026 -
Nicolás Fernandez Universidad de Chile Ativo 105 / 94 40% 3 12.09.2026 -
Abraham Bahachille Carabobo Ativo 92 / 91 40% 1 11.09.2026 -
Joaquín Trasante Danubio Ativo 99 / 109 40% 1 11.09.2026 -
Agustín Maidana San Marcos de Arica Ativo 114 / 96 40% 3 10.09.2026 -
Bruno Jáuregui Union Espanola Ativo 92 / 97 40% 1 10.09.2026 -
Vicente Durán San Luis Ativo 93 / 94 40% 1 09.09.2026 -
Raimundo Rebolledo Union La Calera Ativo 96 / 101 40% 1 08.09.2026 -
Jorge Rodríguez Atlas Ativo 93 / 108 40% 2 07.09.2026 -
Yolfran Caricote Metropolitanos Ativo 109 / 97 40% 1 07.09.2026 -
Miguel Brizuela O'Higgins Ativo 123 / 107 40% 3 06.09.2026 -
Iván Rozas Antofagasta Ativo 116 / 99 40% 1 06.09.2026 -
Ramiro Ruiz Rodríguez Atlético Tucumán Ativo 113 / 113 40% 1 06.09.2026 -
Martín Villarroel Santiago Wanderers Ativo 89 / 91 40% 1 05.09.2026 -
Nahuel Brunet Godoy Cruz Ativo 112 / 112 40% 2 04.09.2026 -
Alejandro Rincon Llaneros Ativo 114 / 96 40% 1 04.09.2026 -
Cristhián Rivas Estudiantes de Merida Ativo 126 / 110 40% 1 01.09.2026 -
Tomás Galván River Plate Ativo 120 / 137 40% 2 31.08.2026 -
Martín Ormeño Union Espanola Ativo 95 / 104 40% 1 31.08.2026 -
Juan Camilo Pérez Carabobo Ativo 124 / 120 40% 1 31.08.2026 -
Bruno Hernández Cerro Largo Ativo 105 / 106 40% 1 31.08.2026 -
Alexis Gutiérrez Club America Ativo 126 / 121 40% 2 28.08.2026 -
Enzo Ferrario Audax Italiano Ativo 89 / 96 40% 1 26.08.2026 -
Yeferson Rincon Atletico Venezuela Ativo 88 / 111 40% 1 25.08.2026 -
Edgar Zaldívar Atlas Ativo 107 / 115 40% 1 24.08.2026 -
Delvin Alfonzo Deportivo Tachira Ativo 110 / 108 40% 1 23.08.2026 -
Carlos Adrián Sánchez Pachuca Ativo 108 / 104 40% 1 23.08.2026 -
Walter Tandazo Melgar Ativo 104 / 104 40% 1 20.08.2026 -
Johan Madrid Sporting Cristal Ativo 110 / 108 40% 1 19.08.2026 -
Tomás Ángel FC Midtjylland Ativo 114 / 133 40% 1 19.08.2026 -
Jorge Berlanga Pachuca Ativo 104 / 118 40% 1 13.08.2026 -
Carlos Faya Deportivo La Guaira Ativo 109 / 121 40% 2 12.08.2026 -
Facundo Velazco San Marcos de Arica Ativo 92 / 110 40% 1 11.08.2026 -
Santiago Simón Toluca Ativo 120 / 113 40% 1 11.08.2026 -
Pablo Ortíz Tijuana Ativo 101 / 103 40% 1 08.08.2026 -
Christian Ebere Cruz Azul Ativo 114 / 132 40% 1 07.08.2026 -
Lucas González Nacional Ativo 114 / 99 40% 1 07.08.2026 -
Valentín Fascendini Talleres Ativo 129 / 127 40% 1 05.08.2026 -
Juan Manuel Requena Universitario Ativo 107 / 108 40% 1 03.08.2026 -
Pablo Bennevendo Pumas UNAM Ativo 109 / 109 40% 1 03.08.2026 -